Triuchirapalli, India

9:36 AM IST on September 22, 2017 (GMT +0530)
Tiruchirappalli

Weather History for VOTR - August, 2013

Change the Weather History Date:

Tuesday, August 20, 2013

  Actual Average Record
Temperature  
Mean Temperature 88 °F -  
Max Temperature 98 °F 91 °F 100 °F (2012)
Min Temperature 78 °F 78 °F 75 °F (1998)
Cooling Degree Days 23    
Growing Degree Days 38 (Base 50)    
Moisture  
Dew Point 68 °F    
Average Humidity 50    
Maximum Humidity 65    
Minimum Humidity 26    
Precipitation  
Precipitation 0.00 in - - ()
Sea Level Pressure  
Sea Level Pressure 29.73 in    
Wind  
Wind Speed 11 mph ()    
Max Wind Speed 20 mph    
Max Gust Speed 31 mph    
Visibility 3.7 miles    
Events      
Averages and records for this station are not official NWS values.
T = Trace of Precipitation, MM = Missing Value Source: Averaged Metar Reports

Daily Weather History Graph

Daily Weather History Graph

Search for Another Location

Airport or City:

Trip Planner

Search our weather history database for the weather conditions in past years. The results will help you decide how hot, cold, wet, or windy it might be!

Date:

Astronomy

Aug. 20, 2013 Rise Set
Actual Time 6:05 AM IST 6:31 PM IST
Civil Twilight 5:43 AM IST 6:53 PM IST
Nautical Twilight 5:18 AM IST 7:18 PM IST
Astronomical Twilight 4:53 AM IST 7:43 PM IST
Moon 5:50 PM IST (8/20) 5:02 AM IST (8/20)
Length of Visible Light 13h 09m
Length of Day
12h 25m
Waxing Gibbous, 99% of the Moon is Illuminated
Aug 20
Waxing Gibbous
Aug 21
Full
Aug 28
Last Quarter
Sep 5
New
Sep 12
First Quarter

Hourly Weather History & Observations

Time (IST) Temp. Heat Index Dew Point Humidity Pressure Visibility Wind Dir Wind Speed Gust Speed Precip Events Conditions
12:10 AM 84.2 °F 86.6 °F 66.2 °F 55% 29.77 in 3.7 mi WNW 6.9 mph - N/A   Scattered Clouds
12:40 AM 84.2 °F 88.4 °F 69.8 °F 62% 29.77 in 3.7 mi WNW 9.2 mph - N/A   Scattered Clouds
1:10 AM 84.2 °F 88.4 °F 69.8 °F 62% 29.77 in 3.7 mi WNW 9.2 mph - N/A   Scattered Clouds
1:40 AM 84.2 °F 88.4 °F 69.8 °F 62% 29.74 in 3.7 mi West 13.8 mph - N/A   Scattered Clouds
2:10 AM 84.2 °F 88.4 °F 69.8 °F 62% 29.74 in 3.7 mi WNW 11.5 mph - N/A   Scattered Clouds
2:30 AM 83 °F - 67 °F 49% 29.74 in 2 mi West 11.5 mph - -   Haze
2:40 AM 84.2 °F 86.6 °F 66.2 °F 55% 29.74 in 3.7 mi West 10.4 mph - N/A   Scattered Clouds
3:10 AM 82.4 °F 84.6 °F 66.2 °F 58% 29.74 in 3.7 mi West 10.4 mph - N/A   Scattered Clouds
3:40 AM 82.4 °F 84.6 °F 66.2 °F 58% 29.74 in 3.7 mi West 10.4 mph - N/A   Scattered Clouds
4:10 AM 82.4 °F 84.6 °F 66.2 °F 58% 29.74 in 3.7 mi West 11.5 mph - N/A   Scattered Clouds
4:40 AM 82.4 °F 84.6 °F 66.2 °F 58% 29.74 in 3.7 mi West 11.5 mph - N/A   Scattered Clouds
5:10 AM 82.4 °F 84.6 °F 66.2 °F 58% 29.74 in 3.7 mi West 10.4 mph - N/A   Scattered Clouds
5:30 AM 81 °F - 68 °F 56% 29.75 in 2 mi West 11.5 mph - -   Haze
5:40 AM 80.6 °F 83.2 °F 68.0 °F 65% 29.74 in 3.7 mi West 13.8 mph - N/A   Scattered Clouds
6:10 AM 80.6 °F 83.2 °F 68.0 °F 65% 29.74 in 3.7 mi West 8.1 mph - N/A   Scattered Clouds
6:40 AM 80.6 °F 83.2 °F 68.0 °F 65% 29.77 in 3.7 mi WSW 9.2 mph - N/A   Partly Cloudy
7:10 AM 82.4 °F 85.4 °F 68.0 °F 62% 29.77 in 3.7 mi West 9.2 mph - N/A   Partly Cloudy
7:40 AM 82.4 °F 85.4 °F 68.0 °F 62% 29.77 in 3.7 mi West 9.2 mph - N/A   Partly Cloudy
8:10 AM 84.2 °F 88.4 °F 69.8 °F 62% 29.80 in 3.7 mi West 10.4 mph - N/A   Partly Cloudy
8:30 AM 84 °F - 69 °F 52% 29.78 in 2 mi West 9.2 mph - -   Haze
8:40 AM 84.2 °F 88.4 °F 69.8 °F 62% 29.80 in 3.7 mi West 10.4 mph - N/A   Partly Cloudy
9:10 AM 86.0 °F 90.4 °F 69.8 °F 58% 29.80 in 3.7 mi West 12.7 mph - N/A   Partly Cloudy
9:40 AM 87.8 °F 92.6 °F 69.8 °F 55% 29.80 in 3.7 mi West 13.8 mph - N/A   Partly Cloudy
10:10 AM 89.6 °F 94.7 °F 69.8 °F 52% 29.80 in 3.7 mi West 11.5 mph 23.0 mph N/A   Partly Cloudy
10:40 AM 91.4 °F 96.8 °F 69.8 °F 49% 29.77 in 3.7 mi West 12.7 mph 24.2 mph N/A   Partly Cloudy
11:10 AM 93.2 °F 97.7 °F 68.0 °F 44% 29.77 in 3.7 mi West 12.7 mph 24.2 mph N/A   Scattered Clouds
11:30 AM 95 °F - 67 °F 30% 29.75 in 2 mi West 12.7 mph - -   Haze
11:40 AM 95.0 °F 99.5 °F 68.0 °F 41% 29.77 in 3.7 mi WNW 12.7 mph - N/A   Scattered Clouds
12:10 PM 95.0 °F 99.5 °F 68.0 °F 41% 29.74 in 3.7 mi West 15.0 mph 26.5 mph N/A   Scattered Clouds
12:40 PM 96.8 °F 101.8 °F 68.0 °F 39% 29.74 in 4.3 mi West 12.7 mph 24.2 mph N/A   Scattered Clouds
1:10 PM 96.8 °F 103.1 °F 69.8 °F 41% 29.71 in 4.3 mi West 17.3 mph 28.8 mph N/A   Scattered Clouds
1:40 PM 96.8 °F 101.8 °F 68.0 °F 39% 29.68 in 4.3 mi West 16.1 mph 27.6 mph N/A   Scattered Clouds
2:10 PM 96.8 °F 101.8 °F 68.0 °F 39% 29.68 in 5.0 mi WNW 13.8 mph 25.3 mph N/A   Scattered Clouds
2:30 PM 98 °F - 66 °F 26% 29.66 in 2 mi WNW 18.4 mph - -   Haze
2:40 PM 98.6 °F 104.1 °F 68.0 °F 37% 29.68 in 5.0 mi WNW 17.3 mph 28.8 mph N/A   Partly Cloudy
3:10 PM 98.6 °F 104.1 °F 68.0 °F 37% 29.65 in 5.0 mi West 19.6 mph 31.1 mph N/A   Scattered Clouds
3:40 PM 96.8 °F 101.8 °F 68.0 °F 39% 29.65 in 4.3 mi West 18.4 mph 29.9 mph N/A   Mostly Cloudy
4:10 PM 96.8 °F 101.8 °F 68.0 °F 39% 29.65 in 4.3 mi West 15.0 mph 26.5 mph N/A   Mostly Cloudy
4:40 PM 96.8 °F 101.8 °F 68.0 °F 39% 29.65 in 4.3 mi West 13.8 mph 25.3 mph N/A   Mostly Cloudy
5:10 PM 95.0 °F 99.5 °F 68.0 °F 41% 29.65 in 4.3 mi West 16.1 mph 27.6 mph N/A   Scattered Clouds
5:30 PM 96 °F - 64 °F 26% 29.65 in 2 mi West 17.3 mph - -   Haze
5:40 PM 95.0 °F 98.5 °F 66.2 °F 39% 29.65 in 3.7 mi West 17.3 mph 28.8 mph N/A   Mostly Cloudy
6:10 PM 93.2 °F 96.2 °F 66.2 °F 41% 29.68 in 3.7 mi West 12.7 mph 24.2 mph N/A   Mostly Cloudy
6:40 PM 91.4 °F 94.0 °F 66.2 °F 43% 29.68 in 3.7 mi West 11.5 mph 23.0 mph N/A   Scattered Clouds
7:10 PM 91.4 °F 94.0 °F 66.2 °F 43% 29.71 in 3.7 mi West 11.5 mph 23.0 mph N/A   Scattered Clouds
7:40 PM 89.6 °F 92.2 °F 66.2 °F 46% 29.71 in 3.7 mi West 11.5 mph 23.0 mph N/A   Scattered Clouds
8:10 PM 87.8 °F 90.4 °F 66.2 °F 49% 29.74 in 3.7 mi West 9.2 mph - N/A   Scattered Clouds
8:40 PM 87.8 °F 90.4 °F 66.2 °F 49% 29.74 in 3.7 mi West 5.8 mph - N/A   Scattered Clouds
9:10 PM 87.8 °F 90.4 °F 66.2 °F 49% 29.74 in 3.7 mi West 11.5 mph - N/A   Scattered Clouds
9:40 PM 87.8 °F 91.4 °F 68.0 °F 52% 29.74 in 3.7 mi West 13.8 mph - N/A   Scattered Clouds
10:10 PM 87.8 °F 91.4 °F 68.0 °F 52% 29.74 in 3.7 mi West 11.5 mph - N/A   Scattered Clouds
10:40 PM 87.8 °F 91.4 °F 68.0 °F 52% 29.77 in 3.7 mi West 13.8 mph - N/A   Scattered Clouds
11:10 PM 86.0 °F 88.2 °F 66.2 °F 51% 29.77 in 3.7 mi West 13.8 mph - N/A   Scattered Clouds
11:40 PM 86.0 °F 88.2 °F 66.2 °F 51% 29.77 in 3.7 mi West 13.8 mph - N/A   Scattered Clouds